sat.trackr.live / text

‹ back to catalog

STARLINK-32500

NORAD 61935 · 2024-207Z

PAYLOAD ACTIVE UNKNOWN

§ Identity

Operator
Country
US
Launch date
2024-11-11
Launch site
AFETR
Launch vehicle
Mass (kg)
RCS (m²)

Purposes: comms

External: N2YO · Heavens-Above · Gunter

§ Orbital elements

Epoch: 2026-05-25T05:09:05.893056Z

Period
94.27 min
Inclination
42.9943°
Eccentricity
0.0000765
Mean motion
15.27587746 rev/d
Perigee alt
482.5 km
Apogee alt
483.6 km
Semi-major
6,861.2 km
B*
4.6974e-4
RAAN
213.1908°
Arg perigee
299.6317°
Mean anomaly
60.4458°
Rev number
8,638

§ Raw data

STARLINK-325001 61935U 24207Z   26145.21465154  .00012690  00000+0  46974-3 0  99952 61935  42.9943 213.1908 0000765 299.6317  60.4458 15.27587746 86380

JSON: /api/v1/satellites/61935 · /tle

For live sub-satellite position, see the globe view (requires WebGL).

§ Visibility from observer

Set your observer location to see the next 7 days of passes ≥ 10°. The values pass through the URL so the page stays shareable.

No JS? Fill the form by hand. The geolocation button needs JavaScript.